RH
12 10 10 10 10 10 10 10 14 17 20 15 11 18 24 24 19 36 38 44 56 72 39 15 12 9 8 16 20 28 35 37 39 43 48 51 50 56 57 58 38 38 48
20 16 13 13 16 16 16 16 18 19 22 14 12 17 24 18 16 34 53 73 75 91 40 17 14 12 12 18 22 27 32 37 39 41 44 43 44 44 40 52 45 54 77
28 24 22 20 20 20 20 19 18 20 21 16 14 14 24 24 25 50 55 88 98 97 52 20 18 16 15 18 23 28 35 38 38 37 38 41 41 36 46 60 71 85 75
22 29 29 26 23 22 24 22 20 19 22 20 18 20 23 33 52 50 84 88 100 99 74 33 23 20 19 19 24 30 34 36 37 38 42 40 35 42 55 63 74 84 73
39 36 30 26 28 22 26 24 23 23 22 21 20 19 25 35 39 50 67 94 97 99 88 48 30 30 27 26 28 35 40 41 41 40 33 35 51 64 65 66 64 62 65
32 25 25 29 30 25 22 28 26 27 25 20 19 18 19 29 31 48 52 81 100 91 98 61 44 41 37 38 39 39 38 36 35 36 43 53 64 63 64 67 66 63 63
35 34 36 38 36 34 35 36 33 29 27 23 19 19 20 28 29 30 36 51 96 99 99 93 64 51 49 49 48 47 48 52 59 62 65 68 66 65 64 67 61 56 57
44 50 45 45 40 38 41 41 38 37 30 21 20 19 19 21 28 30 36 82 98 98 97 96 92 79 58 59 65 62 60 65 71 72 72 69 66 62 56 53 52 54 55
54 56 58 54 49 48 46 41 40 39 35 27 23 22 22 20 21 57 98 97 96 96 94 94 87 72 64 56 59 55 59 61 68 72 69 68 62 58 53 50 49 51 52
52 61 63 67 61 57 53 49 45 37 32 29 28 27 26 22 37 100 96 94 98 97 98 94 90 84 62 58 58 59 60 61 61 62 62 61 57 54 52 51 49 50 55
31 61 72 74 72 65 67 64 50 43 38 34 31 31 45 31 96 96 95 97 97 97 97 97 96 84 53 49 52 60 64 63 62 61 60 57 55 53 51 48 50 54 41
27 51 68 75 78 74 71 72 61 50 44 37 34 34 34 99 99 98 96 97 96 97 97 97 97 96 90 78 63 53 55 57 56 54 54 54 52 49 48 48 77 46 50
34 33 29 39 61 75 76 76 70 59 48 40 37 38 28 100 98 98 97 97 98 97 98 97 96 97 97 94 94 86 67 64 55 54 59 67 59 76 53 75 46 59 98
31 26 24 32 61 84 86 81 69 60 53 46 42 38 31 37 96 99 96 98 97 98 97 97 96 97 96 96 93 96 94 77 59 58 76 56 78 77 48 84 87 96 98
43 35 32 35 46 65 76 70 60 54 50 49 46 40 39 41 36 60 95 98 98 98 98 98 98 97 96 98 98 99 97 95 97 95 83 70 88 74 96 98 98 97 93
44 39 36 41 54 62 69 71 76 69 58 57 58 49 57 74 69 69 84 93 96 98 98 98 99 98 100 96 98 100 96 100 97 98 99 99 97 97 98 98 98 100 100
71 45 38 40 46 56 62 70 76 76 65 64 61 60 64 72 76 87 95 93 88 95 96 96 97 98 97 99 99 100 100 98 99 97 100 98 98 99 98 97 98 94 96
99 72 46 36 38 51 63 67 71 74 67 65 63 64 66 71 71 89 100 99 96 97 96 96 96 94 94 95 96 96 98 96 96 97 96 96 92 90 78 88 93 87 84
100 98 72 53 49 57 71 79 78 76 70 64 63 65 66 70 70 70 92 100 100 98 97 97 97 98 98 98 95 97 95 96 93 76 62 61 43 32 28 22 28 31 33
100 100 100 100 81 61 74 96 95 85 82 73 69 67 68 72 73 68 76 98 100 100 100 100 100 99 97 98 97 98 98 99 97 90 85 77 76 71 65 61 57 58 59
100 95 100 100 100 100 100 100 100 100 97 85 77 76 73 72 73 68 76 86 98 100 100 100 100 100 100 100 98 99 100 100 98 98 98 97 97 91 92 94 89 86 88
96 92 90 86 83 97 100 100 100 100 100 100 97 95 93 86 84 80 87 90 79 90 99 100 100 100 100 100 100 100 94 94 94 96 97 98 97 97 97 97 97 99 96
100 100 100 99 80 83 62 98 94 100 100 100 100 100 98 94 91 88 96 72 63 90 94 87 100 95 92 87 96 98 95 92 84 76 76 86 88 93 98 94 93 100 98
100 100 100 100 96 97 100 89 86 89 78 73 68 78 93 100 97 100 99 41 64 74 60 56 74 84 70 65 67 73 90 74 52 57 44 39 39 48 62 71 100 100 100
95 99 100 100 99 98 100 100 100 95 100 100 100 100 99 89 76 90 98 73 65 72 96 86 79 82 79 70 68 70 57 44 34 41 40 36 31 24 21 29 74 100 100
85 83 81 91 100 100 100 100 100 100 100 100 100 100 100 100 100 80 92 90 81 69 95 100 93 94 91 69 69 71 69 49 36 38 42 36 32 31 23 16 13 15 36
Wind_Speed
47 49 46 44 43 43 42 40 38 39 37 36 36 40 43 45 40 43 46 53 56 54 53 50 47 46 46 45 45 44 40 37 34 34 33 31 28 29 27 27 27 26 28
49 49 49 46 41 42 43 42 36 38 34 36 38 42 44 46 44 46 46 47 56 55 52 52 50 49 48 47 45 43 41 38 36 37 35 33 32 30 28 30 29 30 35
48 48 47 45 44 40 41 42 40 38 35 35 37 42 44 40 41 38 41 47 55 58 56 55 51 51 49 48 45 45 41 40 41 38 37 34 31 32 31 35 36 36 35
50 46 46 46 46 43 41 44 42 39 35 35 38 44 45 40 39 35 37 47 54 60 61 56 54 53 51 49 47 44 44 43 41 41 38 37 34 36 36 35 39 45 39
47 48 49 49 46 47 43 45 43 40 38 36 38 44 45 43 43 39 39 44 56 64 65 60 59 56 53 51 50 47 44 44 42 41 40 39 37 37 37 40 40 39 41
50 49 49 48 49 49 48 43 44 42 41 38 40 43 45 46 47 46 39 39 51 64 70 62 60 56 57 54 53 50 46 45 44 43 42 42 42 43 42 40 41 42 41
48 47 48 48 48 47 44 42 44 43 41 41 43 43 46 47 49 45 44 40 50 63 69 65 64 60 57 55 54 52 50 49 49 47 47 47 46 45 43 42 44 44 46
45 45 46 47 48 47 45 43 42 41 41 41 44 45 47 47 49 48 45 44 54 66 72 71 65 63 61 60 58 57 55 54 53 51 50 49 49 47 45 46 47 48 49
41 43 45 46 47 46 45 44 43 42 42 42 45 46 48 44 42 40 40 43 60 62 70 69 68 67 66 65 62 62 60 59 57 55 53 52 52 48 50 50 52 54 53
38 41 42 44 45 45 45 44 43 42 42 43 47 48 48 42 43 45 44 49 59 64 64 67 71 72 69 68 66 65 63 61 60 58 57 54 54 55 55 56 56 56 59
33 36 40 41 43 44 43 42 43 43 43 44 48 46 39 40 40 44 42 44 59 52 64 65 71 70 72 70 69 67 65 64 63 62 61 60 59 58 59 59 59 64 64
32 34 38 41 43 44 44 44 44 44 45 47 51 45 38 37 39 41 39 47 57 59 75 58 63 71 72 74 72 70 69 69 67 67 66 64 64 63 64 62 69 67 73
36 38 38 39 41 43 45 46 47 48 49 51 52 48 40 37 45 48 44 40 51 66 65 61 56 75 74 77 75 75 74 72 72 71 66 72 67 69 65 68 71 70 55
42 42 43 42 40 43 45 47 48 49 51 52 51 49 43 48 49 35 40 40 40 54 62 62 64 66 82 79 75 81 78 73 72 71 73 68 75 69 70 72 71 59 48
45 46 45 44 43 42 44 45 46 46 48 49 45 44 38 37 41 49 46 37 43 41 37 51 50 55 63 63 62 66 79 77 73 75 72 74 74 78 75 52 42 42 39
47 46 46 45 44 44 45 46 46 46 47 46 43 40 38 33 33 32 41 51 48 44 34 42 41 37 41 54 52 61 71 70 67 66 62 58 63 56 48 40 38 39 38
51 50 48 48 48 47 46 47 46 46 48 48 46 42 42 38 30 23 23 33 40 53 54 54 41 42 59 38 50 48 49 58 50 55 58 56 48 42 37 42 41 44 41
54 54 53 52 53 53 51 49 49 48 49 48 48 46 46 42 38 32 26 22 24 32 35 38 40 45 46 46 44 39 56 41 42 44 44 51 46 49 46 49 53 46 43
54 56 55 57 56 56 55 53 53 53 52 51 49 50 49 47 45 42 36 29 24 24 28 26 28 31 35 34 37 28 29 28 29 28 30 32 31 31 32 31 34 35 37
59 56 56 59 59 59 58 55 54 54 53 53 54 53 53 52 49 46 42 37 33 30 27 25 25 26 27 28 28 31 34 33 34 34 35 33 34 35 33 35 35 36 40
59 61 59 56 57 57 56 54 54 54 54 53 52 53 54 55 53 50 47 43 40 39 34 33 31 27 26 27 28 28 29 31 32 33 34 36 36 38 38 38 39 39 39
60 58 58 63 63 60 57 58 56 55 56 56 57 57 56 55 55 53 52 48 47 45 42 39 36 32 31 29 29 29 30 29 30 30 31 33 34 35 37 37 36 37 37
66 64 61 61 63 66 67 67 62 57 59 58 58 59 60 59 57 58 57 55 54 51 49 46 44 41 40 37 35 33 31 29 29 31 32 33 33 35 36 37 36 37 37
51 52 59 65 63 65 68 72 71 69 63 63 62 64 65 64 60 61 60 58 55 55 54 55 50 48 46 45 42 39 38 36 34 34 32 32 34 35 36 37 38 39 37
62 58 55 60 66 68 69 69 72 74 67 64 67 66 65 64 65 66 65 64 61 55 56 56 54 53 51 48 45 42 42 42 42 39 38 35 35 36 37 36 37 38 38
57 58 61 70 66 66 71 69 74 77 78 73 70 66 63 62 70 66 66 63 64 66 58 55 59 58 56 51 48 46 45 44 44 45 44 42 40 39 39 40 40 40 41
Wind_Direction
248 248 248 249 252 252 254 254 256 257 254 253 248 248 252 253 254 251 252 246 238 235 233 228 225 224 220 216 214 212 214 215 219 222 225 230 236 250 255 260 264 267 277
247 249 249 249 250 253 254 255 254 257 257 245 246 249 252 256 250 248 250 245 234 229 229 227 225 222 217 218 216 217 215 218 222 227 232 234 241 248 250 258 263 275 292
244 246 249 250 250 250 254 254 253 254 256 248 247 248 252 255 252 256 262 241 237 222 223 225 225 225 220 219 219 219 218 220 225 230 234 239 243 244 251 264 273 278 288
245 249 251 250 252 250 250 254 254 254 254 251 247 253 253 248 247 252 252 244 236 225 220 223 223 223 222 221 223 222 224 226 229 233 238 242 242 250 259 267 271 282 286
244 244 245 248 249 250 248 252 254 255 255 244 244 246 252 253 248 250 256 247 229 223 221 220 221 222 222 223 224 226 228 231 234 238 239 241 240 253 262 270 274 280 286
242 244 246 248 250 251 250 247 251 250 249 248 240 243 250 247 246 250 256 250 235 224 221 217 222 223 225 225 226 227 230 233 235 237 239 240 248 257 264 266 273 279 284
243 242 242 243 246 248 250 251 251 251 248 247 242 244 250 248 247 254 258 264 238 224 222 217 222 223 226 228 229 229 229 233 236 238 241 244 251 258 264 268 272 278 283
242 240 240 240 241 243 243 242 243 242 241 238 240 238 247 252 252 254 259 261 238 226 215 217 218 225 227 228 231 232 233 235 240 242 246 250 255 259 265 270 275 278 280
239 240 240 240 241 241 241 240 240 239 239 237 236 240 245 255 251 256 255 248 225 226 222 216 218 223 226 229 231 234 236 238 242 246 249 253 258 263 268 272 276 278 282
236 236 236 237 238 238 239 239 237 235 236 235 237 240 248 249 245 246 247 242 226 224 227 227 224 219 228 231 233 236 240 243 246 249 254 258 262 265 268 271 275 276 278
233 234 235 236 236 236 236 236 236 235 234 234 237 248 250 243 250 255 244 235 221 226 227 231 233 220 228 232 236 239 243 245 249 252 255 258 261 264 268 270 273 276 276
234 233 233 233 232 233 234 233 233 233 234 233 238 248 239 244 244 245 248 232 229 224 229 239 241 237 226 231 236 240 242 246 249 252 254 259 260 263 266 269 272 277 275
231 229 231 231 230 230 230 229 231 232 233 236 239 250 239 240 240 239 234 238 234 226 224 239 245 238 239 232 230 236 241 243 247 251 254 258 260 262 265 269 271 270 279
230 226 227 227 226 226 228 228 230 232 234 240 243 251 248 245 237 221 219 224 228 231 232 240 246 246 238 237 240 240 238 244 248 251 253 255 259 264 262 265 271 275 276
222 222 225 226 226 225 224 226 229 232 235 241 246 254 259 255 255 258 233 218 222 224 235 236 240 244 247 233 233 239 239 243 245 248 252 256 261 260 269 265 265 269 268
225 223 224 226 226 225 224 225 227 230 234 240 247 253 256 263 265 261 265 262 247 220 220 229 229 222 245 249 256 241 253 252 256 250 251 258 265 258 251 256 259 253 256
225 225 224 226 228 227 226 225 226 227 230 237 241 246 255 266 270 258 253 262 267 261 243 248 244 235 231 239 237 227 240 249 242 245 238 246 236 244 248 241 272 259 274
221 225 229 231 229 229 229 227 227 228 229 234 238 242 249 257 265 264 257 247 255 263 268 265 268 273 270 278 248 265 249 269 262 255 260 249 287 291 291 278 289 295 293
223 221 221 225 226 227 228 229 230 230 230 232 236 239 244 250 256 260 266 266 266 263 266 267 263 260 256 262 268 264 265 273 273 271 270 267 263 264 265 264 266 270 269
219 216 219 222 224 225 228 229 231 232 233 233 235 239 244 248 250 254 259 266 270 268 267 265 262 264 264 265 264 264 255 256 261 261 265 267 271 270 267 270 268 267 266
221 221 221 222 223 225 226 228 230 232 233 234 236 239 241 245 248 251 255 258 264 267 264 261 259 255 255 259 259 256 257 260 261 260 260 262 265 267 267 268 269 269 269
238 234 231 230 229 229 230 230 230 230 234 236 237 238 239 241 244 249 252 254 257 260 264 264 262 262 262 262 263 264 265 263 264 263 264 263 266 269 271 271 270 270 271
231 228 228 233 233 233 231 231 230 231 231 231 236 240 240 240 243 247 247 252 252 253 256 259 263 266 266 265 263 263 264 267 267 265 267 269 270 269 268 269 270 270 270
224 223 227 234 234 232 232 231 233 234 235 237 237 240 243 244 245 246 249 252 251 251 255 257 258 260 266 266 266 264 264 269 269 272 270 270 270 267 268 269 269 272 273
246 245 235 229 232 233 231 231 232 231 236 235 239 240 243 245 247 247 250 251 254 250 256 255 257 259 263 266 265 265 268 271 274 279 275 270 273 272 272 271 274 275 272
246 245 245 243 237 233 232 233 231 232 236 237 237 240 240 248 246 246 250 252 253 246 249 253 257 259 259 261 263 261 267 270 273 279 281 275 274 275 277 277 275 272 270